This demonstration page uses our WeatherBlox Daily Observations layout. Learn more.

Left ArrowRight Arrow

41.55636, -103.73856

Hourly Observations for December 6, 2021

Temp ( °F °C ) Dew Point ( °F °C ) Humidity (%) Winds ( mph kmh ) Pressure ( in mb ) Visibility ( mi km ) Precip ( " mm )
12:58 am 00:58 Cloudy 19 -7.1 10 -12.1 68 68 NNW 12 19 30.42 1030 10 16 0.00 0.00
1:58 am 01:58 Cloudy 19 -7.3 10 -12.1 69 69 NW 7 11 30.41 1030 10 16 0.00 0.00
2:58 am 02:58 Cloudy 19 -7.2 10 -12 69 69 NW 7 11 30.42 1030 10 16 0.00 0.00
3:58 am 03:58 Cloudy 19 -7.4 10 -12.3 68 68 NW 6 9 30.40 1030 10 16 0.00 0.00
4:58 am 04:58 Cloudy 19 -7.3 10 -12 69 69 W 6 9 30.40 1029 10 16 0.00 0.00
5:58 am 05:58 Clear 15 -9.7 8 -13.2 76 76 SSW 5 7 30.40 1029 10 16 0.00 0.00
6:58 am 06:58 Clear 12 -10.9 6 -14.6 74 74 SSW 6 9 30.40 1029 10 16 0.00 0.00
7:58 am 07:58 Mostly Cloudy 16 -9.1 9 -12.7 75 75 SSW 5 7 30.37 1029 10 16 0.00 0.00
8:58 am 08:58 Mostly Sunny 21 -6.1 5 -14.8 51 51 S 6 9 30.36 1028 10 16 0.00 0.00
9:58 am 09:58 Sunny 25 -3.9 1 -17.1 35 35 S 14 22 30.33 1027 10 16 0.00 0.00
10:58 am 10:58 Sunny 27 -3 0 -17.6 32 32 SSW 21 33 30.28 1025 10 16 0.00 0.00
11:58 am 11:58 Sunny 30 -0.9 1 -17 29 29 SSW 28 44 30.19 1023 10 16 0.00 0.00
12:58 pm 12:58 Mostly Sunny 30 -1 3 -16.3 31 31 SSW 26 43 30.13 1020 10 16 0.00 0.00
1:58 pm 13:58 Mostly Sunny 30 -1 2 -16.9 29 29 SSW 24 39 30.08 1019 10 16 0.00 0.00
2:58 pm 14:58 Sunny 30 -0.9 3 -16.2 31 31 SSW 25 41 30.05 1018 10 16 0.00 0.00
3:58 pm 15:58 Sunny 30 -1 4 -15.3 33 33 SSW 25 41 30.01 1016 10 16 0.00 0.00
4:58 pm 16:58 Mostly Cloudy 31 -0.8 4 -15.4 32 32 SSW 25 41 29.98 1015 10 16 0.00 0.00
5:58 pm 17:58 Mostly Clear 30 -1.1 3 -16.2 31 31 SSW 26 43 29.97 1015 10 16 0.00 0.00
6:58 pm 18:58 Cloudy 29 -1.4 3 -16.1 32 32 SSW 23 37 29.97 1015 10 16 0.00 0.00
7:58 pm 19:58 Mostly Cloudy 29 -1.5 3 -16.1 32 32 SSW 18 30 29.93 1013 10 16 0.00 0.00
8:58 pm 20:58 Mostly Cloudy 30 -1 3 -16 31 31 SW 18 30 29.89 1012 10 16 0.00 0.00
9:58 pm 21:58 Partly Cloudy 29 -1.5 4 -15.4 34 34 SW 16 26 29.86 1011 10 16 0.00 0.00
10:58 pm 22:58 Clear 29 -1.9 7 -14 39 39 SW 13 20 29.86 1011 10 16 0.00 0.00
11:58 pm 23:58 Partly Cloudy 29 -1.5 10 -12.2 44 44 SW 15 24 29.85 1011 10 16 0.00 0.00

Powered by AerisWeather